Theta_e
316 315 313 312 313 312 313 313 312 311 312 312 311 309 308 308 309 309 309 310 309 312 313 315 315 314 313 311 310 310 309 307 307 306 305 304 304 309 318 322 325 327 328 327 326 327 327 326 325 325 324 323 323 323 323 322 322 322 322 322 321 320 319 319 319 318 317 317 316 316 316 315 315 315 315 315 315 314 314 314 314 315 314 314 314
317 315 312 311 311 311 311 311 311 311 311 312 311 310 310 309 308 308 309 310 312 314 314 316 316 315 312 311 311 310 308 308 308 307 305 303 304 304 315 318 321 325 327 326 326 327 326 324 324 324 323 323 323 322 322 322 322 322 321 320 320 320 320 319 318 317 317 316 316 315 315 314 314 314 314 314 314 314 314 314 314 314 314 314 314
317 314 312 311 310 310 311 311 310 311 311 312 308 311 310 310 310 311 311 311 312 310 310 312 313 315 313 311 312 312 310 311 312 308 304 303 302 302 304 314 318 320 324 327 325 325 324 323 323 323 322 322 322 322 322 322 321 322 321 321 320 319 319 319 317 317 316 316 315 314 314 314 314 314 313 314 313 313 313 313 313 313 312 313 313
316 315 314 313 311 311 312 311 313 312 312 312 311 309 310 310 310 310 311 310 309 309 308 310 310 313 310 310 312 313 312 312 311 309 306 303 302 300 301 303 311 315 319 324 325 325 324 324 323 322 322 322 321 322 322 322 321 321 321 320 320 318 318 317 316 316 316 315 315 314 314 313 313 313 314 313 313 313 312 313 312 312 312 313 313
316 316 314 314 313 312 311 312 314 314 313 311 310 309 309 309 310 309 309 310 310 311 309 307 309 310 310 311 312 311 312 313 311 310 308 303 300 300 300 299 300 308 312 318 326 324 323 322 322 321 321 321 322 322 322 322 321 321 320 321 320 318 318 316 316 315 315 315 315 314 313 313 313 313 313 313 312 312 312 312 312 312 312 312 312
316 315 314 314 313 312 313 313 313 312 311 309 310 308 309 309 311 311 312 311 311 310 309 311 307 306 308 309 314 315 315 313 312 311 306 301 299 298 299 298 298 301 302 312 319 323 322 321 321 321 320 319 320 321 322 322 321 320 320 319 319 318 317 316 316 315 314 314 314 313 313 313 312 312 312 313 312 311 312 312 311 312 311 312 312
316 316 314 314 313 312 312 314 314 310 310 309 312 310 311 313 310 310 311 309 308 307 309 310 307 309 309 312 315 314 313 314 313 309 306 301 298 298 298 298 297 299 301 303 310 316 321 320 320 318 317 318 319 320 320 320 320 320 319 319 319 318 316 315 315 315 314 313 313 312 312 312 312 312 312 312 311 311 311 311 311 311 310 311 312
316 315 315 314 313 314 314 314 311 310 311 309 311 312 311 312 311 312 311 311 307 312 307 306 305 307 309 314 314 313 313 311 310 307 304 301 298 297 297 296 295 298 301 301 305 310 315 315 314 313 313 314 317 318 319 320 320 320 318 318 317 317 315 314 314 314 314 313 312 312 311 311 311 311 311 311 311 311 311 311 310 310 311 311 310
316 314 315 314 313 314 313 314 311 313 311 311 311 313 313 313 311 310 312 312 309 309 307 305 307 308 311 312 313 312 310 309 310 309 304 301 297 297 296 295 297 302 297 299 301 304 310 311 309 309 309 311 313 315 316 318 319 319 318 317 317 316 315 313 313 313 312 312 311 311 311 311 310 310 311 310 310 310 310 311 310 310 310 310 310
316 315 314 315 314 314 314 313 312 312 311 311 313 312 311 313 313 310 311 312 308 308 308 306 306 307 309 310 310 310 308 306 307 304 304 301 297 296 296 295 295 295 297 297 298 300 300 303 305 305 307 308 311 313 314 315 318 318 317 317 316 315 314 313 312 311 311 311 311 310 310 310 310 310 310 310 310 310 309 310 310 310 310 309 309
316 316 316 315 314 314 314 313 313 312 312 312 311 310 310 309 312 312 307 310 311 309 311 307 306 308 309 309 307 305 303 303 302 300 301 301 299 298 295 295 294 294 295 295 295 296 296 294 293 294 298 306 308 311 311 312 313 316 317 317 316 315 314 313 311 311 310 310 310 310 310 310 310 310 309 309 309 309 309 309 309 309 309 310 309
317 317 316 316 315 314 314 313 313 313 312 311 311 311 312 310 309 311 309 307 305 306 305 306 305 307 306 308 306 304 303 301 299 299 298 297 298 297 296 293 293 293 293 291 294 294 295 293 292 290 291 299 304 306 308 309 310 312 315 316 315 314 313 313 311 310 310 310 310 309 309 309 309 309 310 309 309 308 309 309 309 309 309 309 309
316 317 317 316 316 315 315 314 314 313 313 313 314 313 313 313 312 309 311 307 309 307 304 305 307 307 304 302 306 306 303 301 299 298 297 295 294 295 294 293 292 293 292 290 291 292 292 291 289 287 287 286 292 300 303 305 307 311 312 313 314 314 313 312 311 310 309 309 309 309 308 309 308 309 309 309 309 309 309 309 309 309 309 309 308
316 317 317 317 316 316 315 316 315 314 314 314 313 311 311 310 309 308 310 311 311 310 310 311 305 304 305 302 302 303 302 300 299 298 297 296 295 296 294 293 292 291 290 290 289 290 290 290 288 288 286 286 287 288 292 294 300 307 309 310 311 313 313 312 311 309 308 309 308 308 308 308 308 308 308 308 308 309 308 309 308 309 309 309 309
317 316 317 317 317 316 316 316 315 314 313 312 312 311 312 312 311 313 310 309 310 308 310 312 308 300 302 306 303 305 306 304 300 298 298 296 293 293 292 292 292 290 290 290 290 290 290 288 287 286 285 285 286 287 290 296 298 303 305 307 309 311 312 312 311 309 308 307 308 308 307 307 308 307 308 307 308 308 307 308 308 308 308 308 308
318 317 317 317 317 317 317 316 316 315 315 314 313 313 312 312 311 311 312 311 310 312 310 311 306 309 305 308 304 303 301 301 301 298 295 295 294 293 292 293 290 289 289 291 290 290 289 288 286 286 285 285 286 287 289 290 298 301 301 302 305 308 308 310 310 308 307 307 308 307 307 307 307 307 308 307 306 307 307 307 308 308 307 307 307
319 318 316 317 317 318 317 317 317 316 316 315 315 314 314 313 313 312 312 314 310 310 311 311 309 313 310 301 301 301 301 298 296 297 293 293 291 290 290 290 290 290 290 288 287 289 289 287 286 285 285 285 285 286 286 288 289 294 295 302 303 305 306 308 309 308 307 306 307 307 306 306 306 306 306 307 307 306 306 306 307 307 307 307 307
319 319 318 316 317 318 318 318 318 317 316 317 317 314 313 313 313 314 313 313 315 312 311 308 311 310 309 306 310 306 299 297 301 297 293 291 288 288 288 289 288 289 288 289 289 288 288 288 285 285 285 284 285 285 286 288 291 290 291 296 302 304 304 305 306 306 306 306 306 306 306 305 305 305 305 305 306 306 305 307 307 306 306 306 306
318 319 320 318 318 318 319 319 319 319 315 316 316 315 316 315 314 314 315 314 312 313 312 312 309 310 309 306 302 298 304 303 302 294 296 293 292 288 288 288 288 289 290 289 288 289 288 287 286 285 285 285 285 285 285 288 296 297 302 301 302 302 303 302 303 304 304 305 305 305 305 305 305 305 305 304 304 305 305 305 306 306 306 306 306
318 319 320 320 319 319 319 319 319 319 317 317 317 317 317 315 314 315 315 314 314 315 313 312 311 311 310 309 306 299 299 300 302 305 301 295 296 291 288 287 287 289 290 289 288 289 288 286 286 285 284 284 284 285 285 285 285 288 294 301 301 302 302 302 301 301 301 302 303 303 304 304 304 304 304 304 304 304 304 305 305 305 305 305 305
318 318 319 320 318 318 319 319 319 319 316 318 318 318 317 316 313 313 314 314 315 315 314 313 313 313 308 309 308 306 302 299 297 298 299 298 296 292 290 287 287 287 287 288 287 288 289 287 286 285 286 285 285 284 284 284 285 288 296 299 300 301 302 302 301 300 300 299 300 301 301 302 303 303 304 304 303 304 303 304 305 304 305 305 304
317 318 318 318 319 318 318 319 319 319 316 318 318 318 317 317 316 315 315 314 314 314 315 314 313 314 313 313 309 307 305 302 299 298 296 297 301 294 291 288 287 287 287 288 287 287 288 287 286 285 285 285 284 284 283 284 284 287 293 297 297 299 301 301 300 300 299 299 298 298 299 300 301 302 302 303 303 303 303 304 304 304 304 304 304
317 317 318 318 318 318 318 319 319 318 316 318 318 318 318 317 317 316 315 315 314 314 313 314 314 313 313 314 312 310 308 306 305 301 303 298 294 293 289 289 291 288 287 287 287 287 288 287 285 284 284 284 284 284 284 284 290 291 295 295 296 297 299 300 300 299 299 298 298 298 298 298 299 300 301 301 302 303 303 303 303 303 303 303 303
317 317 317 317 317 318 317 318 317 318 318 318 318 318 318 317 317 316 316 315 316 314 315 314 313 313 312 313 314 314 313 312 311 306 304 305 303 302 297 288 288 286 287 286 286 287 287 286 284 284 284 284 285 285 285 285 287 293 291 294 295 296 297 299 300 299 298 298 297 297 297 297 298 299 299 300 300 301 302 302 302 302 302 302 302
316 317 317 316 316 316 317 317 317 317 318 318 318 317 317 317 316 316 316 316 316 316 316 316 316 314 314 314 314 314 314 315 314 311 308 308 305 303 294 290 290 287 287 288 286 285 287 286 284 284 284 284 285 285 285 285 285 291 291 293 293 294 295 296 298 298 298 297 297 296 296 297 298 298 298 298 298 299 300 301 302 302 301 301 302
317 317 317 316 316 316 316 317 317 317 317 318 318 317 317 317 316 316 316 317 316 316 316 316 316 316 316 315 313 314 315 314 312 307 305 303 298 300 294 287 288 288 286 286 285 286 285 285 284 284 284 284 285 284 284 284 285 291 290 287 290 293 294 295 296 296 296 296 296 296 295 296 297 297 297 297 297 297 297 299 300 300 301 300 301
318 318 315 317 317 317 316 316 317 317 317 317 317 317 316 316 316 316 316 316 317 316 316 316 316 315 314 315 314 313 313 313 311 308 307 305 305 303 299 294 288 286 286 286 285 287 286 283 284 283 284 284 284 283 284 284 286 290 289 285 286 291 291 293 294 294 295 295 295 295 295 296 296 297 296 296 296 296 296 298 298 298 299 299 300
319 318 317 318 318 317 317 317 318 317 317 317 317 317 316 317 318 317 317 316 317 317 317 317 316 316 315 315 314 314 314 313 311 311 308 307 306 303 302 302 299 292 285 285 285 286 286 286 283 284 283 283 283 284 286 286 286 289 287 283 283 285 290 291 293 293 293 293 294 294 294 295 295 296 295 295 295 295 295 296 296 297 297 297 298
320 319 320 320 320 320 320 319 319 319 319 318 318 318 318 317 318 318 318 318 316 317 318 317 317 317 316 315 315 315 314 312 307 304 305 303 304 304 304 304 303 302 288 285 286 285 286 285 285 285 283 283 283 283 285 284 286 286 282 282 282 282 288 290 291 291 291 293 293 293 293 294 295 294 294 294 294 294 294 295 295 295 295 295 296
321 321 321 321 321 316 321 321 321 320 320 321 320 320 319 319 319 319 319 319 317 317 317 317 317 317 316 315 314 313 312 309 307 306 305 305 303 302 302 302 301 303 299 293 291 287 286 286 284 284 282 283 283 284 283 282 287 284 281 281 281 282 288 288 289 290 291 292 292 291 292 293 294 294 293 293 293 293 294 294 294 295 294 295 295
319 321 320 321 320 320 320 321 321 320 321 321 321 321 320 319 319 318 319 318 318 316 316 316 316 316 315 314 314 313 312 311 308 304 301 299 298 296 296 298 298 302 302 296 295 288 287 286 284 283 283 282 283 283 282 282 286 284 281 281 281 285 286 285 287 289 290 291 290 289 290 292 292 292 293 293 292 293 293 293 293 293 293 294 294
321 321 320 320 319 318 318 320 320 320 320 320 321 321 320 320 319 318 317 318 317 316 315 314 315 314 314 313 311 311 308 303 302 299 298 298 298 298 297 297 297 298 300 296 293 293 283 285 286 284 284 283 282 282 281 282 285 285 280 281 282 285 281 281 286 287 288 289 288 288 289 290 290 290 291 291 291 292 292 292 292 292 292 292 292
320 319 319 319 319 319 319 318 320 320 320 320 320 320 320 319 318 318 317 316 316 316 314 313 311 311 310 311 310 309 306 302 299 298 299 298 296 296 295 294 294 293 293 293 292 289 283 284 284 284 283 283 281 281 280 281 280 281 282 280 281 280 280 281 281 284 286 287 287 287 288 288 288 289 289 289 289 290 290 290 290 290 290 291 291
319 319 319 319 318 318 318 319 318 319 320 320 320 319 318 317 317 318 316 315 314 315 314 313 311 309 308 308 307 305 300 303 300 298 297 295 293 293 290 291 292 291 290 291 289 288 286 282 283 283 283 283 281 280 280 279 279 280 279 280 281 281 281 280 280 281 285 286 286 286 287 287 287 287 288 288 288 288 289 289 289 289 289 289 290
316 319 318 318 317 317 317 317 318 318 319 318 318 317 316 316 316 316 316 314 313 312 311 311 311 308 306 306 306 299 295 296 295 294 291 292 292 292 290 289 291 291 289 290 290 287 286 283 282 282 282 282 281 280 280 281 280 280 279 279 280 281 281 280 281 280 283 285 286 286 285 286 286 286 287 287 287 287 288 288 288 288 288 288 289
315 316 318 318 317 316 316 316 316 317 317 317 316 315 317 315 315 315 313 313 312 312 312 311 309 307 306 303 300 295 293 296 295 292 292 292 291 290 291 289 290 290 288 287 289 288 285 283 281 282 282 281 280 280 281 280 280 279 280 280 280 280 280 281 280 279 281 285 286 284 284 284 285 285 286 286 286 286 286 287 287 287 287 287 288
316 315 314 315 316 316 316 316 316 315 315 316 317 315 314 314 314 314 313 312 311 311 311 310 303 304 302 301 297 294 293 294 293 291 290 290 289 289 289 289 288 287 286 285 285 284 284 284 282 282 282 280 278 278 280 279 279 278 278 279 280 280 280 280 280 280 282 284 285 284 283 283 283 284 285 285 285 285 285 286 286 286 286 286 287
313 313 314 313 314 315 315 315 315 315 314 312 311 312 313 312 312 312 312 311 310 310 308 306 304 302 302 301 299 296 293 294 294 292 291 290 289 289 289 288 287 287 286 285 284 284 285 284 283 281 280 279 278 278 279 279 279 278 279 280 280 279 279 279 279 279 279 279 278 279 281 281 281 282 283 283 284 284 284 284 284 285 285 285 287
311 311 311 312 311 313 313 313 313 313 313 312 312 312 312 311 311 310 308 306 305 304 304 303 302 302 302 299 296 295 295 295 296 294 291 290 289 289 289 288 287 286 285 284 283 283 283 283 282 281 280 279 278 278 278 279 280 280 280 279 279 279 279 279 278 279 279 279 281 282 281 281 281 281 281 282 282 282 283 283 283 283 284 285 286
304 306 308 309 309 309 311 311 312 311 312 312 311 310 309 309 307 307 307 306 304 301 298 298 296 295 295 296 296 295 295 295 294 292 291 290 289 289 289 287 286 286 285 284 282 282 282 282 281 280 278 279 277 277 278 278 278 279 280 280 280 279 277 278 278 277 277 277 276 277 279 279 279 279 280 280 280 280 281 281 281 281 282 284 286
302 304 306 307 307 307 306 307 308 307 308 308 307 306 306 306 306 306 305 303 301 299 295 293 292 292 292 292 293 292 292 291 291 291 291 292 291 290 288 287 286 286 285 283 282 281 282 281 279 279 278 278 278 277 276 277 278 280 281 280 279 279 277 275 274 275 276 276 277 275 274 275 274 274 274 274 275 278 277 279 279 280 282 284 286
297 297 299 302 303 304 304 302 300 301 303 305 299 300 301 305 302 302 300 299 297 296 294 291 290 290 291 290 290 289 289 289 289 290 291 291 291 291 289 287 286 285 285 283 282 281 280 279 278 278 277 278 278 278 278 279 280 280 278 278 278 278 277 275 274 274 276 276 273 274 274 275 273 272 272 272 273 276 275 275 274 277 281 284 285
293 293 295 298 298 297 299 299 298 300 300 300 296 299 300 300 301 300 300 297 294 293 292 292 292 289 289 289 289 288 287 287 288 290 291 290 290 290 289 288 288 287 285 283 281 280 279 279 278 278 279 279 279 280 279 280 279 279 280 279 279 277 275 273 275 275 274 274 272 269 272 272 273 271 272 272 272 271 274 274 278 281 282 284 285
290 290 293 294 294 294 294 294 296 295 295 294 297 297 298 298 297 298 297 295 293 293 292 293 292 290 288 288 288 288 288 288 288 288 288 289 289 289 289 288 288 289 288 285 282 279 277 277 277 278 279 279 280 280 280 279 280 279 279 278 278 276 275 273 274 275 275 275 271 269 272 271 270 271 271 272 272 272 272 276 280 282 283 284 285
289 292 292 292 291 290 293 294 293 292 292 294 296 296 296 297 297 296 296 295 293 292 290 290 289 289 288 288 287 287 288 286 286 286 286 286 287 288 288 287 288 288 289 289 288 282 281 280 279 279 279 280 279 280 281 281 281 279 278 277 277 276 274 273 275 272 273 275 272 267 269 271 269 270 270 272 271 271 272 277 280 282 283 284 284
290 290 289 290 289 290 292 293 292 291 291 292 295 295 295 296 296 296 293 292 290 290 289 289 289 288 288 288 288 287 286 286 286 286 286 286 286 286 286 285 283 284 287 288 288 287 283 281 279 280 280 278 280 280 282 283 281 280 278 278 277 276 275 274 273 272 272 274 271 268 269 270 268 269 269 270 269 269 270 274 279 281 282 283 283
290 291 290 290 290 290 290 290 290 290 290 292 294 294 295 295 296 294 290 290 289 289 289 289 289 289 289 289 288 287 286 286 286 286 285 285 285 284 284 283 282 281 281 282 282 281 280 281 280 279 278 280 280 280 282 282 282 279 279 278 279 277 275 272 272 273 272 274 272 272 270 270 267 267 269 269 268 269 270 274 279 281 282 282 283
287 288 288 289 289 289 289 289 290 289 288 291 292 293 294 295 295 290 289 289 289 288 288 288 288 288 288 288 287 287 286 286 286 287 286 285 284 284 282 280 278 278 279 282 284 284 281 279 279 278 277 279 284 281 282 282 280 279 278 277 277 275 274 271 273 270 271 273 274 273 271 270 268 269 270 270 268 268 271 269 275 280 281 282 282
288 288 289 287 288 289 288 289 289 288 287 289 292 292 293 294 292 289 289 288 288 287 287 287 287 287 287 287 288 287 286 285 286 288 288 286 284 283 281 278 277 276 277 277 286 288 287 287 286 286 287 287 287 287 286 286 282 279 277 276 274 274 274 272 273 271 272 270 272 273 268 269 271 269 270 272 270 269 269 269 269 277 279 280 280
288 288 288 287 287 288 288 288 289 289 288 288 291 292 293 293 290 288 288 288 287 286 286 285 285 286 286 285 286 285 285 284 287 288 288 285 283 282 281 279 276 276 276 276 277 280 287 287 287 287 287 287 287 287 287 286 285 282 279 278 277 275 275 275 275 273 271 268 270 273 271 271 268 269 270 272 269 268 267 267 268 271 276 277 278
288 287 287 288 287 287 287 287 287 288 287 287 289 291 292 292 289 288 288 287 286 286 285 284 284 284 284 285 285 285 285 285 288 288 289 286 284 283 282 279 277 276 275 275 276 276 275 275 275 276 278 282 281 281 284 286 285 283 281 279 277 276 276 275 275 271 271 271 271 274 272 270 268 270 270 271 270 269 264 264 267 268 269 270 271
Wind_Speed
5 5 4 4 4 4 3 4 3 3 2 3 2 2 2 1 1 2 2 3 3 3 3 3 2 1 3 3 2 3 3 2 4 3 2 2 2 3 5 6 7 10 7 6 6 7 8 8 8 9 9 9 9 10 10 11 11 12 13 13 13 13 14 14 14 15 15 15 15 16 15 16 16 17 17 18 19 19 20 21 21 21 22 22 22
6 4 5 5 4 3 3 3 3 3 3 3 3 2 3 1 1 2 2 3 4 3 1 3 2 1 3 4 2 2 3 3 3 3 2 2 2 2 5 6 7 9 11 3 7 8 8 7 8 8 8 8 8 9 9 10 10 11 13 13 12 13 13 14 14 15 15 15 15 16 15 15 15 16 18 18 18 19 19 20 21 21 21 22 22
6 5 5 5 4 4 4 4 4 4 3 3 2 3 1 2 3 3 3 4 4 2 2 3 1 1 1 3 4 3 2 1 3 3 3 1 1 1 1 5 7 9 9 9 7 7 7 6 7 7 7 7 8 8 8 9 10 11 12 13 13 13 13 14 14 14 14 14 15 14 14 15 15 16 18 18 18 18 19 21 21 21 21 21 22
5 5 5 5 5 5 4 4 5 3 4 3 3 2 2 1 1 2 2 1 2 2 1 1 1 1 1 2 4 4 4 4 5 3 3 2 0 0 1 2 6 8 9 10 3 9 8 8 8 7 7 7 7 8 8 9 9 10 11 12 12 12 13 13 14 13 13 14 14 14 14 15 15 16 17 18 19 19 19 20 21 21 21 22 22
5 5 5 5 5 5 4 4 5 3 3 3 2 1 1 2 3 0 0 0 0 1 1 0 0 1 1 2 3 3 4 4 5 4 4 3 1 0 1 2 3 6 9 9 8 7 8 8 9 8 8 8 8 8 8 9 9 10 11 12 12 13 13 13 13 13 13 14 13 14 14 15 15 16 17 18 19 19 19 20 20 21 21 22 22
6 5 5 5 5 5 5 5 5 4 3 2 3 3 3 2 4 1 3 1 3 3 3 3 1 1 1 3 4 4 4 3 3 4 4 3 2 1 1 2 3 4 4 9 9 9 11 9 8 9 9 9 9 9 9 9 9 9 10 11 12 13 13 13 13 13 13 13 13 14 14 14 15 16 17 17 18 18 19 19 21 21 21 22 22
6 6 6 5 5 5 5 5 4 3 3 3 4 3 3 5 3 3 3 2 3 3 3 3 2 3 2 3 4 3 2 3 3 2 2 3 2 1 1 3 3 5 5 4 8 12 9 8 8 9 10 10 9 9 9 9 9 9 10 10 11 12 13 12 12 12 12 12 12 13 14 15 15 16 17 17 18 18 19 19 21 21 21 22 22
5 5 5 5 5 5 5 4 4 3 4 3 3 5 5 5 3 3 4 5 3 5 1 3 3 3 2 3 3 4 4 3 3 2 2 3 2 1 1 2 3 3 4 5 6 8 12 10 11 12 12 10 10 10 9 9 9 9 9 10 10 11 12 12 12 12 12 12 12 13 14 15 15 16 16 17 17 18 18 19 21 21 21 21 23
5 4 5 5 5 5 5 5 4 5 5 5 5 4 5 4 4 4 4 5 5 5 3 2 3 3 3 3 3 5 5 4 4 4 3 3 3 1 1 2 2 4 4 6 6 6 10 13 13 13 12 11 10 10 10 9 9 9 9 9 9 10 11 11 11 11 11 11 12 13 14 14 15 16 16 17 17 18 19 18 20 21 21 21 22
6 5 6 6 6 6 6 6 5 5 5 5 5 4 4 5 5 5 5 4 5 5 5 3 1 2 3 2 2 1 0 0 1 4 5 4 3 3 2 1 3 3 4 4 5 6 6 9 11 10 10 9 10 10 10 10 9 9 9 9 9 9 10 10 10 10 10 11 12 13 13 14 15 15 16 16 17 17 18 19 19 21 21 21 22
7 6 7 7 6 6 6 5 5 5 5 5 5 4 4 4 5 5 2 4 5 5 5 3 2 0 0 0 0 0 2 2 2 1 0 1 2 2 1 1 2 2 3 4 4 5 5 5 5 4 5 10 10 10 10 10 10 9 9 8 8 9 9 10 10 10 10 11 12 12 13 13 14 14 16 16 17 17 18 18 20 21 21 21 21
7 8 8 7 7 6 6 5 5 5 6 6 6 6 7 5 5 6 5 4 2 2 2 4 2 2 1 1 2 1 1 2 2 1 0 0 0 1 2 1 2 1 3 3 5 4 5 4 4 5 4 6 9 9 10 10 9 9 9 8 8 8 8 9 10 10 10 10 11 12 12 13 14 14 15 15 16 17 18 18 19 20 21 21 21
8 8 8 8 7 6 7 6 6 7 7 8 8 7 7 6 5 5 6 4 3 1 2 3 3 0 2 1 1 2 2 2 2 1 1 1 1 1 1 3 2 2 2 3 4 4 4 4 4 4 4 3 5 7 9 9 9 9 10 9 8 8 8 8 9 10 10 10 11 11 12 12 13 14 15 15 15 17 17 17 18 19 20 20 21
8 8 9 9 8 8 8 8 7 7 7 7 6 6 6 5 4 3 2 5 4 4 4 5 0 3 1 2 1 1 1 2 2 1 1 1 2 2 2 3 4 3 2 4 3 4 4 4 4 4 3 3 3 3 4 4 5 9 9 9 8 8 8 8 9 9 9 10 10 11 11 12 13 14 14 15 15 16 17 17 18 19 19 20 20
9 9 9 9 9 8 8 7 7 7 6 6 6 6 6 7 7 7 3 1 2 2 5 6 4 2 2 1 2 1 1 1 0 3 4 3 3 2 2 2 3 2 3 4 4 4 3 3 4 3 3 3 2 2 2 3 5 9 9 9 8 8 7 7 8 8 8 9 9 10 11 12 13 14 14 15 15 15 16 17 18 18 19 20 20
9 9 8 8 9 9 8 7 8 7 8 8 7 7 6 6 6 6 5 4 3 4 5 7 5 6 2 4 1 0 5 3 4 2 1 4 4 3 2 3 2 3 3 5 4 4 4 3 4 3 3 2 1 1 3 3 5 7 8 7 7 8 7 7 7 8 8 8 9 10 10 11 12 13 14 15 15 15 16 17 17 18 19 19 20
8 9 9 9 8 8 8 8 8 7 7 8 8 9 8 7 7 7 7 7 5 3 3 5 6 6 6 3 1 1 4 2 1 4 1 2 3 4 3 3 3 4 5 4 3 4 5 3 3 3 3 2 1 1 2 2 3 2 2 5 6 7 7 6 7 7 7 8 9 9 10 11 12 12 13 14 15 15 16 17 17 17 18 19 20
9 9 9 8 9 9 9 9 9 8 8 9 7 5 6 7 8 8 8 7 8 5 4 4 8 8 5 3 5 4 3 2 1 4 1 1 0 2 4 4 3 4 3 4 5 4 3 5 3 4 3 2 1 1 1 1 1 2 2 3 6 6 6 6 6 6 7 7 8 9 10 11 11 12 13 13 14 15 15 16 17 17 18 18 19
9 9 9 10 9 9 9 9 9 8 7 7 7 8 8 9 7 8 9 8 6 7 9 7 3 5 5 4 2 2 4 5 5 2 3 1 1 2 2 3 4 5 5 4 5 5 4 4 4 4 3 2 1 1 1 0 0 2 6 6 6 5 5 5 5 5 6 7 8 9 10 10 11 12 12 13 14 14 15 15 16 17 18 18 19
10 9 10 10 9 9 9 9 9 9 8 9 10 9 7 7 9 10 8 8 10 11 9 6 8 6 7 7 5 2 3 3 4 7 5 3 3 0 0 1 3 4 5 5 6 7 7 5 4 4 4 3 1 1 1 1 0 0 0 6 7 5 5 4 5 5 5 6 7 8 9 10 11 11 12 13 14 14 14 15 16 17 17 18 19
10 10 10 10 9 10 9 10 10 9 8 9 9 9 11 9 9 9 10 9 9 9 6 8 8 8 6 6 6 6 4 2 1 1 5 5 4 4 3 1 1 3 5 4 4 5 6 6 5 5 5 4 4 3 2 2 1 0 1 4 6 5 4 4 4 4 4 5 6 7 8 9 10 11 11 13 13 14 14 15 16 17 17 18 19
9 10 10 10 10 10 11 12 11 10 9 11 10 10 10 10 11 11 10 10 8 8 10 8 8 7 8 7 7 5 4 2 1 2 1 2 7 5 7 7 5 6 5 6 6 5 5 5 5 5 5 6 5 4 3 3 2 1 2 5 5 5 4 4 4 3 3 4 5 6 7 8 9 10 11 12 13 13 14 15 16 17 18 18 19
8 9 11 10 11 11 11 11 10 10 10 10 11 10 10 10 9 9 9 11 8 9 9 8 7 8 8 8 9 9 9 8 8 6 7 6 5 6 4 7 6 3 4 4 6 5 6 6 7 7 7 7 6 5 4 4 4 4 5 5 4 5 4 3 3 3 2 3 4 4 6 7 8 9 10 11 12 13 14 15 16 17 18 19 19
8 8 9 10 10 10 11 10 11 10 11 10 9 9 8 7 7 8 9 10 8 8 9 10 9 8 9 7 9 9 8 9 8 9 10 10 10 10 6 2 0 4 1 2 1 5 6 8 7 7 7 6 6 5 5 4 4 4 2 4 4 5 4 3 3 2 1 2 3 3 5 7 8 9 10 11 12 13 14 15 16 17 17 18 19
10 10 10 10 10 10 10 10 10 10 10 8 9 8 8 8 9 9 10 10 10 10 10 12 12 12 12 11 10 9 10 9 8 8 9 8 6 8 3 3 6 3 4 5 4 2 5 7 7 7 7 7 6 6 5 5 4 5 4 3 5 5 4 3 3 2 1 1 2 3 5 7 8 9 10 11 12 13 13 15 16 17 18 18 20
10 11 9 8 9 10 10 10 10 8 9 10 9 8 9 9 9 10 11 10 9 10 11 12 11 12 10 10 9 9 11 9 8 5 6 5 4 7 5 2 2 4 1 4 1 3 4 5 6 6 6 6 6 5 5 5 4 7 6 3 3 5 4 4 3 2 1 1 2 3 4 6 7 8 10 11 12 12 13 14 15 17 18 19 19
10 8 7 9 9 9 9 9 9 9 9 9 9 8 9 8 9 10 9 8 9 10 10 10 11 11 9 10 11 10 9 9 8 9 8 10 10 9 8 6 2 2 4 4 4 9 3 2 4 6 6 5 6 6 6 5 6 8 6 4 2 5 4 4 3 3 1 0 2 2 4 6 7 8 9 11 12 12 13 14 16 17 18 19 19
7 7 8 9 9 9 9 10 9 9 9 10 9 9 8 9 9 9 10 7 9 12 11 11 12 13 12 9 9 10 10 9 10 12 12 12 11 8 10 11 9 6 3 5 5 7 5 5 2 6 6 7 6 6 6 7 5 9 6 4 3 2 4 4 3 2 1 1 1 3 4 5 6 8 9 10 11 12 13 14 15 17 18 18 19
8 8 8 9 9 9 9 10 10 10 10 10 10 10 9 9 10 10 11 9 9 11 11 11 11 11 11 12 11 10 11 10 6 4 6 5 7 9 10 12 11 10 6 7 8 8 6 7 7 8 7 6 7 6 6 5 6 6 4 3 3 2 3 4 3 2 1 0 2 2 4 5 6 7 9 10 11 12 13 13 15 16 17 18 18
7 7 8 9 9 9 9 9 9 10 11 10 10 10 10 10 11 11 11 10 10 9 10 11 12 10 10 10 9 9 7 7 10 10 9 11 9 9 9 7 5 9 8 8 8 8 5 5 5 5 6 7 6 6 5 5 7 6 4 3 3 2 3 3 3 2 1 1 2 3 4 5 6 7 9 10 10 11 12 13 14 15 16 17 18
7 7 8 8 8 8 9 9 9 10 10 11 10 10 10 10 10 9 9 10 10 10 9 10 11 10 11 11 10 9 9 11 10 7 6 5 6 4 1 3 7 8 8 6 7 2 5 8 8 3 7 7 6 5 3 3 6 5 4 3 3 4 4 2 3 3 2 1 2 4 4 6 6 8 9 10 10 11 11 12 13 14 15 16 17
7 7 8 8 8 8 8 9 9 9 10 10 10 10 9 10 9 9 9 10 11 12 9 8 8 9 10 10 10 9 8 5 6 6 6 7 9 8 8 7 7 7 6 6 8 7 2 3 5 5 7 8 7 7 4 4 4 7 4 4 5 7 3 2 4 4 2 0 3 4 5 5 6 7 8 9 10 11 11 11 12 13 14 15 16
7 7 8 9 8 9 9 9 10 10 10 10 10 10 10 10 9 9 9 10 11 10 10 9 7 7 8 10 10 11 7 7 5 6 8 8 7 7 6 7 7 7 7 7 9 5 2 1 2 3 5 7 6 6 8 6 5 5 5 5 5 5 4 4 3 2 1 0 2 4 4 4 5 6 8 9 9 10 10 11 11 12 13 14 15
7 8 9 9 8 9 9 10 10 11 11 10 9 9 10 10 10 9 9 10 10 11 10 11 9 8 8 8 7 6 6 9 7 8 7 8 7 8 8 9 9 9 9 9 9 7 9 3 3 5 7 7 8 7 9 9 7 5 6 5 4 4 5 4 2 1 1 1 1 2 3 3 4 5 7 8 9 9 10 10 11 11 13 13 14
7 9 9 9 9 9 10 10 11 10 11 10 8 8 9 10 10 10 10 10 10 10 9 9 10 9 7 8 9 5 5 6 6 6 5 7 8 9 10 9 9 8 8 9 8 8 8 6 5 8 8 8 8 8 6 6 7 7 7 6 5 3 2 3 3 2 2 3 3 1 2 3 4 5 6 7 8 9 9 10 10 11 12 13 14
9 8 9 10 9 10 11 11 11 10 11 11 9 8 9 9 9 9 8 9 10 10 10 9 7 7 8 6 5 4 5 7 6 7 7 6 7 7 8 9 9 10 9 8 9 8 7 7 6 9 8 8 4 3 5 4 6 6 5 3 3 3 3 3 4 3 4 6 5 2 1 2 4 5 6 6 7 8 8 9 9 10 11 12 13
9 8 8 8 9 10 11 10 11 10 9 9 11 11 9 8 9 9 9 9 9 9 8 8 7 6 7 8 6 6 7 8 7 7 5 6 5 5 7 7 8 6 5 7 7 5 6 8 6 4 4 3 1 2 6 7 4 3 1 3 3 4 4 3 4 4 6 7 6 4 1 3 4 5 6 6 7 7 8 8 8 9 10 11 12
8 8 9 8 9 9 9 10 10 11 10 8 6 7 9 9 9 8 8 8 8 8 7 6 7 7 7 8 8 9 9 10 9 8 8 10 7 7 8 8 8 7 8 7 7 6 7 7 9 6 4 7 4 3 5 5 6 4 3 3 3 4 4 4 4 3 2 3 2 2 3 3 4 5 6 6 7 7 7 7 7 7 8 10 12
7 8 8 9 9 9 9 8 8 7 7 8 8 8 7 7 7 8 7 5 5 6 6 6 6 6 7 7 7 8 10 10 9 10 9 8 9 10 10 10 8 9 9 8 7 7 6 6 4 5 7 5 4 5 3 3 1 3 6 4 6 5 5 6 4 2 2 3 4 7 5 4 5 4 5 6 6 7 7 7 6 7 8 10 12
6 6 7 8 7 7 7 7 7 7 7 8 7 6 6 6 6 6 7 8 7 5 5 6 5 5 5 6 7 8 8 7 6 6 9 10 9 10 8 7 8 8 8 7 7 6 7 7 7 7 6 6 4 2 3 3 2 5 7 7 9 5 5 3 3 3 2 3 3 2 3 3 3 4 5 5 5 6 6 5 6 7 9 10 11
6 6 6 6 7 7 6 6 6 6 7 6 5 6 5 5 6 7 6 6 6 6 5 4 4 4 4 5 5 5 5 7 10 10 11 11 10 9 7 7 7 8 7 6 6 7 5 7 5 4 6 6 7 6 6 7 11 12 6 8 7 3 2 1 2 3 4 3 2 2 3 2 2 2 1 3 3 4 4 6 5 7 8 9 11
5 5 5 6 6 6 6 6 5 4 5 5 7 11 9 7 5 5 5 6 6 6 6 5 4 4 4 4 4 8 9 11 12 14 16 16 13 10 10 10 9 7 7 7 7 7 7 8 8 9 8 8 10 11 10 10 7 2 4 7 7 3 2 2 3 4 3 3 2 4 4 3 3 3 2 5 5 3 3 3 3 5 7 9 11
5 5 6 6 6 5 6 5 5 5 5 5 9 10 11 11 7 6 7 6 5 5 5 6 6 5 4 4 4 6 7 8 10 14 13 11 10 8 7 10 10 12 9 7 7 8 9 8 7 7 9 10 10 9 10 7 6 9 7 6 5 4 5 3 6 1 1 4 3 1 4 2 3 4 4 5 5 2 4 5 8 9 9 10 10
4 3 5 5 5 5 5 5 5 5 5 7 10 10 10 11 9 6 5 6 6 6 6 6 5 4 4 3 2 3 4 6 5 5 5 5 6 6 5 9 10 10 9 12 11 8 7 8 8 9 9 9 9 8 8 5 8 6 4 4 5 5 5 5 3 4 1 4 3 0 7 2 2 3 6 6 5 4 5 7 10 10 9 10 9
4 5 5 5 4 4 6 6 5 5 5 7 10 10 10 11 11 9 5 6 7 5 4 3 4 4 5 5 4 3 2 2 2 3 3 3 6 9 9 9 10 12 10 8 5 6 9 10 10 10 11 9 7 9 10 8 4 6 4 4 5 5 3 4 6 2 2 3 4 1 5 2 4 3 6 5 3 2 3 7 11 10 9 9 9
4 4 4 5 5 5 5 6 6 5 5 7 9 10 11 12 11 8 4 4 4 4 5 6 6 6 6 6 5 4 3 4 5 5 6 6 6 6 6 5 5 8 10 10 7 7 8 8 7 9 7 4 8 3 3 4 6 7 7 8 5 6 6 6 1 3 3 4 5 3 3 3 2 2 6 3 1 2 2 7 12 11 10 10 9
6 6 6 5 5 5 5 5 5 5 5 7 8 9 9 9 10 7 5 5 5 4 5 5 5 6 6 6 5 5 5 6 6 6 6 6 6 5 5 5 5 5 5 5 5 4 4 5 6 5 3 5 4 1 5 7 5 2 4 3 5 3 2 2 3 2 3 3 3 3 5 2 1 1 5 3 2 3 4 6 12 12 10 9 9
3 3 3 4 6 6 5 5 5 5 4 6 7 7 8 8 10 5 5 6 6 5 5 4 4 5 5 6 5 5 5 5 6 9 6 5 5 6 6 5 4 2 3 3 4 4 4 4 4 3 2 2 5 4 6 7 6 6 7 6 6 5 5 2 5 1 4 3 5 4 2 4 2 2 3 1 1 4 3 4 9 13 9 8 8
5 5 5 4 5 6 5 5 5 4 3 4 6 8 9 11 8 5 6 5 5 5 5 5 4 4 4 5 5 5 4 4 6 10 9 6 4 5 5 4 3 2 3 1 2 5 5 5 5 5 5 6 7 8 10 12 10 9 7 6 5 6 5 5 5 3 5 4 4 6 2 5 1 2 4 2 3 4 4 4 3 7 7 7 6
5 5 4 3 3 4 5 5 5 5 4 5 8 9 12 12 9 7 5 5 5 5 5 3 3 3 3 6 5 4 4 3 7 9 10 7 4 4 4 4 4 4 3 1 0 2 5 6 6 6 6 7 7 9 10 12 14 11 9 9 7 8 7 7 8 4 1 1 4 6 3 5 0 1 3 3 2 2 2 3 3 4 2 3 5
5 4 4 4 3 2 2 3 4 4 4 4 5 8 11 12 9 6 6 6 6 4 5 4 3 3 2 2 4 4 4 5 9 10 11 9 5 5 4 4 4 4 3 4 3 2 2 3 2 3 2 3 3 3 5 12 13 10 5 3 7 9 9 7 6 2 2 5 6 10 5 3 2 1 2 4 3 1 2 2 2 3 3 2 1
Wind_Direction
184 193 183 203 205 203 197 211 212 213 199 227 212 246 268 260 292 300 317 299 300 292 303 277 245 124 148 144 170 153 155 154 122 96 47 17 357 354 19 15 359 350 337 131 127 117 109 104 106 97 85 77 77 75 74 72 72 70 67 62 62 62 57 54 50 47 44 40 35 34 31 27 23 21 20 18 18 15 14 12 12 11 8 8 7
188 189 177 201 199 200 199 203 207 191 189 223 207 202 241 282 292 284 295 287 282 272 327 300 300 192 148 141 147 188 151 163 127 110 68 25 358 344 7 21 9 353 353 8 128 126 119 122 119 108 95 88 81 79 74 72 71 71 68 65 60 58 56 53 49 46 43 40 37 34 28 26 22 18 19 17 17 16 12 12 11 10 9 7 6
190 184 196 200 194 194 212 198 207 199 189 226 180 205 206 226 241 249 257 266 262 292 300 286 259 302 164 134 150 131 147 176 114 112 87 40 357 332 352 21 15 9 360 349 140 134 129 127 108 105 102 93 83 80 76 74 73 69 69 66 60 56 54 52 49 43 41 39 36 32 26 24 21 16 19 16 15 14 12 11 10 10 7 7 6
193 191 195 200 204 203 217 194 223 205 191 214 211 207 211 244 255 251 247 238 269 307 318 246 332 171 286 134 149 160 172 174 148 140 123 108 349 323 6 8 21 21 4 348 180 142 135 128 119 99 84 82 84 80 75 72 72 71 68 64 60 56 53 51 47 41 38 38 33 29 23 23 19 16 19 14 14 13 11 11 10 9 5 6 5
204 201 199 203 203 204 213 218 224 209 194 206 207 193 221 265 282 155 168 135 39 291 305 108 175 242 174 148 149 169 163 176 159 153 152 150 157 264 29 36 32 24 14 11 66 110 122 98 91 93 86 80 76 75 73 72 69 70 68 64 60 55 52 51 45 40 37 36 30 26 24 20 17 17 17 15 14 11 10 10 9 7 5 5 4
199 205 197 202 203 205 213 222 225 216 193 168 199 194 216 222 247 203 244 239 249 246 268 282 297 252 205 181 172 171 167 189 174 166 151 153 164 141 111 67 50 44 22 28 48 82 96 101 105 95 88 79 73 72 71 70 69 66 64 64 60 55 51 47 41 38 39 35 26 25 23 18 18 15 16 15 13 9 9 9 8 5 5 4 3
202 194 200 195 199 211 215 226 215 202 192 189 193 195 197 220 211 220 251 265 270 254 241 251 249 233 194 180 172 149 165 173 147 140 147 143 127 140 105 90 65 59 44 45 45 52 72 108 106 95 80 71 70 73 70 69 70 67 63 62 62 57 52 44 37 36 37 33 26 24 20 18 15 14 16 13 11 7 9 7 7 4 4 4 3
203 199 197 197 199 209 218 216 213 186 204 188 176 196 203 219 224 197 232 254 254 266 242 243 240 247 191 183 174 166 165 160 167 160 157 127 139 143 109 94 78 72 66 60 61 57 64 77 86 78 72 68 66 66 66 67 68 66 62 59 59 60 54 44 36 34 33 30 26 23 20 18 14 14 14 12 10 5 8 6 6 3 3 2 1
203 199 202 198 206 213 219 209 197 197 203 199 194 207 192 210 224 206 200 228 222 243 257 200 234 234 191 177 214 162 174 179 170 170 148 156 165 164 124 108 86 77 77 77 71 68 67 69 69 65 61 66 69 65 60 61 63 65 64 59 57 57 58 47 37 35 30 28 26 23 20 15 14 14 10 10 8 6 7 4 4 3 1 1 359
195 196 204 206 202 207 213 206 193 198 208 197 213 198 201 195 228 217 200 204 220 225 241 241 233 253 229 189 173 113 101 257 223 161 172 170 177 180 182 133 96 93 85 84 84 80 72 63 62 56 53 63 68 66 63 59 57 59 60 61 55 54 54 51 41 34 27 27 26 22 19 13 12 13 8 9 6 5 6 1 2 2 360 359 359
195 193 203 208 207 207 209 209 189 197 202 207 216 209 204 204 211 231 223 214 212 216 212 169 150 71 8 347 31 51 47 76 74 69 347 201 175 172 114 130 101 79 92 90 94 94 86 76 72 61 47 60 66 67 65 62 56 54 57 56 57 53 53 50 44 35 25 23 24 21 15 12 10 10 8 8 5 4 6 0 2 2 359 357 358
196 197 204 206 208 209 211 202 196 190 201 208 218 209 209 204 217 212 222 249 247 212 135 130 83 74 38 20 47 87 74 75 88 97 58 53 2 114 170 122 121 97 85 90 99 101 97 94 83 74 55 52 64 66 64 64 62 59 53 50 52 52 50 46 46 36 24 21 22 20 12 11 8 8 7 6 4 2 4 0 2 1 360 357 356
199 197 205 206 210 207 204 211 197 196 203 213 211 211 206 199 204 196 205 217 237 187 226 135 138 183 25 11 7 64 109 114 94 52 37 39 53 169 169 153 157 141 104 88 100 105 109 102 96 83 72 63 47 58 63 58 60 64 58 49 45 48 48 45 45 35 24 19 17 18 11 8 7 4 6 4 3 2 2 360 0 0 359 357 354
200 199 204 203 207 206 207 211 198 206 211 214 211 208 199 195 180 192 195 199 219 189 187 130 314 207 224 311 342 342 97 116 128 120 133 118 119 148 201 192 180 162 98 96 98 110 113 116 107 96 89 85 80 73 62 48 44 63 60 52 46 43 44 41 45 38 24 17 17 14 12 6 3 3 2 3 2 1 359 358 359 359 358 356 353
203 200 204 207 208 205 212 208 203 202 208 217 212 213 200 199 189 196 198 214 243 169 179 198 183 112 116 55 306 320 324 91 149 193 175 158 136 160 191 213 187 157 140 118 119 119 118 121 116 115 110 102 96 81 72 73 73 66 61 52 48 46 39 40 41 38 27 14 13 12 11 5 2 3 359 359 359 1 355 358 356 359 357 355 354
204 203 207 206 205 209 209 205 211 201 205 209 206 214 201 202 195 206 180 194 202 220 195 203 151 137 271 210 220 118 304 267 243 277 185 164 165 186 160 196 169 140 128 143 145 136 127 125 126 131 129 129 128 103 95 80 81 76 69 56 51 49 42 37 40 36 26 16 11 11 11 3 2 1 357 356 357 357 354 356 357 356 355 355 353
206 207 204 209 207 209 208 210 209 207 202 211 210 211 204 200 193 196 196 205 209 215 211 197 211 213 159 98 14 290 218 232 79 279 159 176 210 170 175 177 178 174 152 139 127 142 140 131 136 129 139 144 136 117 94 81 87 88 77 79 66 59 50 41 38 33 24 19 10 9 7 2 1 358 356 355 354 354 354 353 356 356 355 354 352
208 209 208 207 210 209 209 209 213 209 202 212 215 202 205 200 198 196 204 208 206 188 215 206 211 218 212 176 182 195 184 234 127 276 315 230 38 178 184 179 164 181 159 147 150 151 154 152 156 155 155 152 142 102 101 119 132 142 137 105 82 67 61 51 42 30 23 17 11 6 4 2 358 355 354 351 353 352 352 352 352 354 354 353 352
212 210 210 209 212 209 210 213 215 212 206 207 212 210 208 206 193 195 206 200 187 209 209 203 187 244 225 207 123 147 146 138 225 72 324 320 254 180 203 164 175 180 185 176 164 155 172 167 166 161 158 157 133 91 35 344 146 169 130 110 96 81 77 71 55 40 22 15 10 5 1 360 355 353 351 348 350 352 348 350 351 351 352 352 350
212 212 211 211 208 212 211 215 215 215 201 208 214 214 209 206 197 202 203 197 197 209 214 187 186 213 197 217 210 137 159 166 170 202 205 229 258 265 296 200 175 202 194 178 176 176 167 174 166 161 157 164 169 165 171 206 268 310 179 119 105 96 88 82 74 57 34 15 9 3 359 357 353 350 348 347 347 347 348 346 349 350 351 350 349
212 212 213 212 206 210 211 216 216 215 204 214 216 211 208 202 196 198 204 207 204 211 203 203 200 211 168 219 203 204 192 163 99 91 184 210 252 188 199 7 194 245 212 186 177 181 178 173 172 164 164 171 183 193 198 199 211 258 145 118 109 100 92 88 80 67 41 19 9 1 356 354 349 347 347 344 345 345 346 346 347 349 349 349 348
212 214 214 210 210 208 212 215 216 214 208 215 215 212 211 208 206 205 205 208 205 203 209 208 203 204 195 191 194 206 211 231 189 143 336 233 240 212 197 176 200 238 184 187 179 177 167 166 168 170 172 178 188 193 202 196 204 197 149 122 112 104 92 93 89 71 55 12 10 357 353 349 344 345 345 343 342 344 344 345 347 346 347 347 347
206 215 213 210 212 210 212 217 215 213 213 215 216 213 211 211 210 207 208 208 205 204 213 219 202 205 207 199 202 195 198 205 204 198 200 219 233 254 240 203 205 212 234 182 176 174 172 175 178 182 180 183 186 191 194 197 202 199 157 136 129 116 105 96 96 88 52 16 3 350 348 343 340 343 343 340 342 343 343 344 344 346 345 346 345
211 212 213 209 211 215 214 215 216 214 217 216 218 214 213 208 207 206 213 213 210 202 210 216 210 210 211 204 213 209 214 215 210 194 201 219 204 226 207 151 287 208 130 88 118 175 181 187 191 185 186 179 186 187 185 185 191 167 137 139 129 121 114 109 111 100 77 18 347 352 343 339 338 340 342 340 341 344 342 343 344 345 345 345 343
214 211 216 203 209 215 212 215 219 217 221 215 219 212 208 207 209 211 213 210 207 205 209 214 208 207 211 209 210 211 217 220 210 206 213 224 207 237 202 169 189 197 185 168 190 214 201 198 187 198 182 186 183 181 184 179 185 169 154 148 142 125 125 113 111 114 100 334 337 352 345 336 336 336 339 337 340 343 342 341 343 344 344 343 342
209 215 204 199 207 213 213 217 218 216 213 218 216 210 206 208 209 214 215 216 207 210 217 220 217 219 215 213 209 213 220 212 210 191 196 182 182 201 193 237 200 196 117 198 231 151 237 217 203 189 192 188 180 176 178 184 187 173 157 154 131 133 133 132 137 156 178 263 345 354 341 333 333 334 338 336 337 342 342 339 342 343 343 342 341
212 208 185 197 205 207 212 216 216 215 212 214 215 210 207 207 214 218 221 213 209 211 220 221 222 222 220 218 215 215 218 212 203 208 197 196 198 199 174 188 254 196 201 205 198 225 183 212 196 205 199 183 180 182 182 184 184 172 154 148 143 137 143 151 159 168 194 332 341 349 337 335 331 333 338 335 336 340 340 340 341 343 343 341 340
206 190 194 191 199 203 206 216 214 214 214 214 212 211 206 207 216 217 223 209 211 213 220 218 223 222 224 224 222 221 216 214 206 211 203 201 197 185 186 203 195 238 216 223 210 238 151 171 221 220 196 188 191 185 189 178 180 171 156 154 157 168 163 168 166 166 191 339 347 356 331 337 327 336 340 335 336 338 338 341 341 342 341 339 339
205 191 192 192 197 198 206 211 212 214 216 215 214 213 209 211 217 219 222 213 212 217 218 219 221 222 223 219 219 220 219 218 219 204 209 209 211 204 192 194 199 213 194 223 218 217 215 193 179 213 188 190 187 191 180 180 180 165 160 165 162 187 172 169 163 153 251 318 324 354 333 334 336 339 338 334 336 338 337 340 341 340 339 337 337
198 191 187 193 198 196 204 208 209 212 216 216 216 216 213 216 218 220 220 214 216 219 219 219 222 222 224 225 222 227 218 202 210 208 200 206 202 203 209 200 169 202 204 211 238 192 202 191 203 172 185 191 184 185 179 181 184 160 168 165 166 182 164 158 172 173 217 252 3 2 340 335 342 344 337 332 336 338 338 339 340 339 337 334 335
193 187 187 196 195 198 203 210 209 212 214 216 215 216 213 218 217 220 217 216 218 222 220 218 223 220 222 223 218 223 218 219 216 201 207 179 177 148 134 187 212 212 212 206 247 239 174 193 212 195 171 179 175 169 173 175 175 167 164 166 175 175 154 163 181 198 211 242 25 8 345 345 346 343 336 332 336 337 337 339 338 337 335 332 334
199 191 193 199 195 197 203 210 215 215 214 216 215 214 211 215 215 216 215 213 219 222 223 217 220 215 220 224 221 220 218 208 204 193 175 185 180 184 191 192 208 216 212 201 222 235 230 220 181 173 164 160 162 166 168 175 180 170 176 177 182 167 161 191 196 190 198 42 29 8 353 351 344 339 332 331 334 333 334 335 336 335 333 332 333
197 190 200 202 200 203 207 210 216 217 216 217 215 214 214 217 215 214 214 214 219 223 222 224 218 215 216 222 219 219 204 198 193 188 197 196 179 182 181 185 197 202 192 204 219 238 24 98 86 151 151 146 171 179 171 172 167 183 190 190 185 177 179 182 184 199 173 50 28 10 357 346 335 330 327 329 327 330 329 330 335 333 331 331 331
192 196 203 203 203 204 209 215 218 220 220 219 215 214 216 217 218 213 215 214 218 224 220 222 218 217 218 223 228 215 183 204 190 201 198 182 176 182 188 185 195 197 194 183 214 195 216 139 159 119 157 179 176 188 180 171 184 182 190 196 201 191 173 164 152 161 198 211 354 7 350 331 320 317 320 323 323 327 326 329 332 329 329 330 328
194 198 203 202 203 204 211 217 219 220 221 221 219 215 217 218 218 217 215 213 215 218 216 218 218 208 203 211 227 189 150 187 193 195 165 185 198 191 189 191 194 195 189 197 185 213 205 201 159 159 179 189 192 184 191 187 182 182 185 196 183 188 174 158 153 156 211 218 220 291 325 315 307 304 313 319 322 324 325 326 327 326 325 326 324
203 206 203 203 202 206 214 218 221 223 221 220 220 218 218 218 220 218 213 213 213 216 218 221 221 209 212 213 213 165 173 195 203 188 197 200 191 195 192 198 193 192 186 189 204 198 188 166 197 189 188 174 201 160 181 176 177 190 198 176 172 165 172 181 178 178 216 220 216 216 308 306 290 294 303 314 319 321 320 320 322 321 321 321 319
210 201 205 207 209 211 215 216 219 220 220 217 219 216 214 212 212 214 214 212 215 218 220 222 213 192 187 196 173 162 173 198 197 196 181 201 201 188 198 187 189 182 165 183 199 187 168 189 168 189 152 164 114 169 174 171 185 200 181 197 189 185 188 193 179 203 213 223 220 224 271 283 283 285 294 305 312 315 312 310 314 314 314 313 313
204 204 202 204 209 216 217 219 216 215 216 216 212 213 212 212 213 215 216 215 214 215 214 214 201 186 184 190 189 182 182 195 204 194 183 192 182 192 194 191 182 164 175 192 195 193 182 185 166 151 179 178 171 191 196 181 163 186 215 225 212 201 190 203 207 200 168 189 146 232 247 270 279 278 285 297 305 306 302 301 305 303 302 304 306
204 205 207 207 210 214 216 212 211 208 209 212 217 219 217 214 210 211 213 208 209 209 210 200 192 198 203 197 183 186 195 202 197 190 182 181 182 198 200 192 177 170 182 189 182 180 176 157 165 173 164 187 162 189 183 175 195 191 204 206 247 203 203 187 214 173 167 205 216 220 226 235 257 261 268 281 292 295 293 296 297 293 296 297 301
206 205 205 207 210 206 213 211 213 211 215 219 215 215 217 212 204 206 205 206 206 200 199 203 197 190 188 188 192 191 198 199 190 166 169 184 187 203 204 177 177 176 182 177 173 172 169 175 172 171 176 165 153 91 96 128 218 264 222 205 225 213 208 198 202 182 195 182 214 229 244 276 294 273 265 274 288 281 280 288 286 280 286 290 297
203 209 208 206 207 211 215 216 217 214 209 210 204 203 201 205 203 208 206 199 194 196 192 176 163 169 175 180 184 186 188 192 189 184 190 187 184 196 189 182 178 183 177 170 176 169 173 165 144 121 156 167 191 164 164 187 200 212 192 185 231 223 131 181 254 209 197 190 222 228 237 175 228 229 211 241 245 254 264 258 260 270 274 281 289
205 207 207 206 203 203 205 214 214 200 201 202 200 197 196 195 187 180 167 179 186 186 180 172 172 185 184 178 180 175 178 183 188 193 200 201 197 190 178 178 179 179 179 172 177 181 170 173 181 165 177 199 193 198 197 210 201 113 152 176 210 188 102 268 272 223 198 191 220 264 237 185 193 249 223 246 247 239 230 233 225 234 259 271 282
188 194 190 193 196 196 194 193 192 195 195 189 184 184 186 179 173 177 181 181 172 168 171 176 187 188 189 183 174 173 176 189 199 204 206 201 200 205 183 191 187 178 171 178 188 179 179 188 179 181 191 199 207 202 210 194 190 200 196 184 174 137 176 184 249 319 167 144 158 267 269 197 167 231 237 240 243 231 234 239 237 246 254 267 278
157 150 156 178 182 171 168 174 181 180 179 177 170 175 175 173 168 168 164 161 166 173 181 189 190 173 164 159 172 156 178 196 197 206 208 206 207 211 198 198 210 212 192 179 178 187 191 176 181 201 191 206 202 191 208 186 207 206 204 170 184 174 170 194 208 224 172 159 131 217 279 182 170 228 257 244 234 228 238 248 252 251 256 267 278
147 159 169 156 172 166 154 159 173 179 182 187 172 170 172 171 170 165 171 168 171 180 171 163 152 151 156 164 166 183 178 148 115 120 133 163 195 203 210 204 210 208 206 209 213 202 178 187 190 200 201 194 196 211 199 198 157 192 165 187 194 195 181 190 215 149 185 176 113 120 275 262 156 212 242 249 224 233 267 270 264 257 258 271 278
166 165 160 162 159 168 172 169 173 181 180 194 184 181 178 176 175 164 148 146 142 149 163 163 158 158 166 170 175 173 137 143 160 159 163 176 182 188 199 200 204 215 218 216 207 167 168 198 194 207 218 175 209 221 182 140 159 192 182 209 180 186 197 208 106 134 143 166 152 135 300 261 183 219 258 268 182 235 233 263 262 256 259 266 276
175 176 172 169 178 173 172 165 162 174 189 186 186 180 173 166 163 144 129 127 130 137 150 155 149 156 168 169 160 157 159 176 186 177 177 178 172 186 195 209 206 206 209 215 212 190 175 190 205 222 192 195 211 119 147 152 157 131 162 180 184 183 127 70 50 89 145 178 155 133 235 265 179 191 250 227 183 224 218 263 255 250 254 260 268
171 151 158 156 166 171 169 160 155 172 194 190 178 174 161 155 140 124 132 132 134 136 127 122 141 162 161 155 157 162 168 180 188 184 182 156 169 182 202 215 222 220 226 241 212 177 173 177 189 184 179 189 165 158 154 151 129 120 102 90 89 102 115 129 222 206 215 215 185 173 231 273 183 179 257 159 142 241 237 222 250 240 242 251 262
166 174 172 171 170 162 164 167 160 164 180 199 181 165 155 144 130 127 127 125 122 118 124 144 152 156 152 161 166 169 165 171 176 183 175 152 169 184 201 216 226 228 245 293 196 145 142 141 132 132 138 137 142 146 154 155 152 141 125 117 162 152 148 211 241 194 244 174 212 195 159 277 189 183 287 238 199 240 247 239 249 244 236 249 258
176 179 164 148 161 165 165 172 172 162 180 185 172 162 153 151 144 141 136 124 125 130 136 136 139 136 153 168 162 155 155 155 168 176 176 163 179 179 191 203 228 239 246 246 41 68 120 118 122 125 133 141 148 158 164 166 161 157 152 198 180 154 198 202 232 198 252 231 216 163 155 228 98 223 273 254 233 258 294 298 233 231 246 274 268
172 159 152 146 138 131 178 173 169 158 163 183 175 159 154 148 140 135 135 134 140 154 144 133 109 111 108 148 162 142 135 146 167 178 180 172 184 179 179 179 219 240 220 167 164 136 91 85 62 79 70 124 138 152 178 179 177 188 209 188 142 177 202 209 206 104 293 256 197 175 179 236 125 259 144 349 335 255 160 254 258 223 226 193 228